Fecha, hora, temperatura, viento dirección y velocidad, humedad y presión.

  • 19-03-2019 23:00:00 | 0.00°C | Sudeste |3.00 km/h | 90.00% | 0.00 hPa
  • 19-03-2019 22:00:00 | 0.00°C | Este |4.00 km/h | 88.00% | 0.00 hPa
  • 19-03-2019 21:00:00 | 0.00°C | Sudeste |6.00 km/h | 88.00% | 0.00 hPa
  • 19-03-2019 20:00:00 | 0.00°C | Este |3.00 km/h | 90.00% | 0.00 hPa
  • 19-03-2019 19:00:00 | 0.00°C | Este |4.00 km/h | 88.00% | 0.00 hPa
  • 19-03-2019 18:00:00 | 0.00°C | Sudeste |4.00 km/h | 79.00% | 0.00 hPa
  • 19-03-2019 17:00:00 | 0.00°C | Sudeste |4.00 km/h | 84.00% | 0.00 hPa
  • 19-03-2019 16:00:00 | 0.00°C | Norte |3.00 km/h | 86.00% | 0.00 hPa
  • 19-03-2019 15:00:00 | 0.00°C | Sur |3.00 km/h | 88.00% | 0.00 hPa
  • 19-03-2019 14:00:00 | 0.00°C | Norte |3.00 km/h | 84.00% | 0.00 hPa
  • 19-03-2019 13:00:00 | 0.00°C | Oeste |6.00 km/h | 91.00% | 0.00 hPa
  • 19-03-2019 12:00:00 | 0.00°C | Sudoeste |6.00 km/h | 93.00% | 0.00 hPa
  • 19-03-2019 11:00:00 | 0.00°C | Sudoeste |12.00 km/h | 94.00% | 0.00 hPa
  • 19-03-2019 10:00:00 | 0.00°C | Sudoeste |13.00 km/h | 94.00% | 0.00 hPa
  • 19-03-2019 09:00:00 | 0.00°C | Sudoeste |8.00 km/h | 92.00% | 0.00 hPa
  • 19-03-2019 08:00:00 | 0.00°C | Oeste |6.00 km/h | 90.00% | 0.00 hPa
  • 19-03-2019 07:00:00 | 0.00°C | Noroeste |6.00 km/h | 90.00% | 0.00 hPa
  • 19-03-2019 06:00:00 | 0.00°C | Sur |5.00 km/h | 91.00% | 0.00 hPa
  • 19-03-2019 05:00:00 | 0.00°C | Sudeste |4.00 km/h | 88.00% | 0.00 hPa
  • 19-03-2019 04:00:00 | 0.00°C | Noroeste |6.00 km/h | 79.00% | 0.00 hPa
  • 19-03-2019 03:00:00 | 0.00°C | Noroeste |11.00 km/h | 81.00% | 0.00 hPa
  • 19-03-2019 02:00:00 | 0.00°C | Noroeste |11.00 km/h | 76.00% | 0.00 hPa
  • 19-03-2019 01:00:00 | 0.00°C | Oeste |5.00 km/h | 90.00% | 0.00 hPa
  • 19-03-2019 00:00:00 | 0.00°C | Noroeste |8.00 km/h | 76.00% | 0.00 hPa
    • Información sobre el estado de las mareas, altura de la marejada, temperatura del agua y otros datos de Gijón en Asturias.

      Surf Gijón